Theta_e
294 295 293 294 294 294 294 294 295 296 297 297 297 297 297 298 300 300 303 306 311 316 317 317 317 317 315 313 313 312 312 312 312 312 313 314 314 317 320 324 327 332 332 333 334 335 335 335 335 336 334 334 334 333 332 333 333 334 334 335 335 335 335 334 334 335 335 334 334 334 334 334 334 332 333 334 333 333 332 332 332 332 334 333 333
294 293 294 295 294 294 294 294 294 295 296 296 297 297 297 297 299 300 302 305 310 314 317 316 316 315 313 311 310 310 310 310 310 310 311 312 313 313 317 320 324 328 332 333 333 334 334 334 337 338 337 332 333 333 332 331 333 334 333 334 335 335 335 334 334 334 334 334 334 334 333 332 332 332 333 332 331 332 332 331 331 330 330 331 330
294 293 293 294 293 293 293 294 294 295 295 296 296 297 297 297 298 298 301 305 310 313 316 315 314 312 311 309 308 308 308 308 309 309 309 310 311 312 313 315 318 323 326 331 332 332 332 332 334 335 338 336 335 333 332 333 332 333 335 334 334 336 336 335 334 333 333 333 333 333 332 330 330 331 332 333 332 331 329 328 328 329 330 330 331
294 293 294 294 293 293 292 294 294 294 295 294 296 297 297 297 298 300 302 307 310 312 314 314 312 311 309 308 307 306 306 306 306 306 307 308 309 310 310 311 313 316 319 322 328 330 331 331 332 332 333 335 335 335 334 335 334 334 334 334 335 335 336 336 334 332 332 332 333 332 331 331 331 332 332 330 331 331 331 330 330 331 330 330 330
294 295 297 292 294 293 293 294 293 293 294 294 295 295 296 297 299 302 305 308 310 310 312 310 308 308 307 306 305 304 304 304 303 304 304 305 306 306 307 307 308 311 313 315 318 325 331 329 330 330 331 332 334 334 335 333 332 332 334 335 336 335 334 335 335 333 332 332 332 330 330 331 332 332 331 331 332 332 332 332 332 331 331 331 331
295 293 293 293 292 292 293 293 293 294 294 294 294 294 295 297 298 303 305 306 308 308 306 305 305 304 303 302 302 301 301 301 301 302 302 303 303 303 303 304 305 305 307 310 313 317 325 331 330 330 330 332 334 336 336 336 335 333 333 332 334 334 335 334 334 333 333 331 332 331 332 332 332 332 332 332 333 332 332 332 331 331 331 331 331
293 295 293 293 292 293 294 293 293 294 293 293 293 295 295 295 297 304 304 305 305 305 303 302 301 300 300 300 299 299 299 299 300 300 300 301 301 300 300 301 301 301 303 304 308 311 317 324 329 331 333 332 335 333 336 336 335 335 333 332 331 334 334 334 334 333 332 332 331 331 331 333 333 332 332 332 332 332 332 332 331 331 331 331 330
294 294 294 292 292 293 294 293 294 292 294 293 294 294 294 295 295 299 303 301 302 301 301 299 299 298 299 299 299 299 298 298 298 299 299 299 298 298 298 299 299 299 301 301 302 306 312 316 323 329 331 332 332 333 335 335 334 333 333 332 332 333 333 335 334 331 331 332 332 332 332 331 332 332 331 331 331 331 331 331 331 331 330 330 330
293 293 295 293 292 294 293 293 294 292 292 292 293 293 293 295 295 298 302 300 299 298 298 298 297 297 297 296 296 297 296 297 297 297 298 297 296 296 296 297 298 299 298 298 299 300 305 309 314 321 324 328 331 330 332 333 332 333 332 334 332 332 332 331 333 332 332 332 331 331 330 330 330 331 331 331 331 330 330 330 330 330 331 331 331
292 293 293 293 292 293 292 292 292 292 292 293 292 291 292 295 296 297 300 300 297 296 295 296 296 295 295 294 295 295 295 295 296 297 296 295 295 295 295 295 295 296 296 297 297 298 300 303 308 312 315 320 327 331 333 334 333 334 333 331 333 334 333 332 332 331 329 329 329 329 329 330 329 329 329 330 330 330 330 330 329 329 329 329 329
293 293 294 294 292 292 293 292 292 292 293 292 292 292 293 293 299 299 299 299 297 295 295 295 294 294 293 293 294 294 294 295 295 295 294 294 294 295 294 294 294 294 294 295 296 296 297 299 300 302 306 314 320 326 329 329 330 330 332 331 330 332 331 331 330 330 329 328 328 328 328 328 328 328 328 328 329 329 328 328 328 328 328 327 327
292 292 294 294 294 292 293 291 291 291 292 293 291 292 294 297 298 299 298 297 296 295 294 294 293 293 293 293 293 293 293 293 293 293 293 293 292 292 292 292 292 292 292 293 293 293 294 295 297 298 301 307 313 319 324 325 326 328 329 329 329 329 329 329 328 328 327 327 326 326 326 326 326 327 327 327 327 327 328 327 326 326 325 325 325
294 293 294 297 294 292 292 291 291 292 292 292 290 290 291 296 298 299 297 296 294 293 293 293 293 291 292 292 292 293 293 292 291 291 291 291 291 290 290 290 290 290 290 291 290 291 291 292 293 295 297 300 305 310 318 321 323 327 328 328 328 328 327 326 326 326 325 325 324 324 324 325 324 325 324 325 325 325 325 325 325 325 325 325 324
295 292 294 294 293 292 293 292 292 292 291 290 290 295 292 294 297 296 294 296 294 294 294 291 291 289 289 288 291 292 292 291 290 290 290 290 290 289 289 288 288 288 289 289 288 289 289 290 291 292 294 296 299 302 309 317 319 322 325 325 326 327 327 326 325 325 324 323 323 323 322 322 322 322 322 322 322 322 322 322 323 323 323 323 323
293 294 294 292 294 293 294 292 292 295 292 291 290 291 291 295 296 297 294 290 293 291 291 290 289 289 288 289 285 285 290 289 290 289 289 289 289 288 288 287 286 287 287 287 286 287 288 288 289 291 292 294 296 299 303 311 319 321 322 322 323 324 325 325 324 324 323 322 321 321 321 321 321 321 321 321 320 320 320 320 321 321 320 321 321
292 293 293 293 293 294 293 292 292 293 292 292 290 291 290 291 292 296 297 295 292 294 291 289 291 291 288 286 285 285 282 285 285 287 288 287 287 286 286 285 285 285 285 284 285 285 286 288 288 289 291 292 294 297 301 306 316 320 320 320 321 322 323 324 324 324 322 321 320 320 320 320 320 320 320 319 319 319 319 319 319 319 319 319 319
292 293 294 293 291 292 293 293 293 292 292 292 292 293 292 292 293 296 296 296 293 289 290 288 291 289 290 286 285 285 282 284 284 285 287 286 286 285 285 284 284 284 283 283 284 284 285 286 287 288 289 290 292 294 298 304 307 310 317 319 321 321 322 323 323 322 321 320 318 318 317 317 317 317 317 318 318 317 317 318 318 317 316 316 316
291 292 293 293 292 292 292 293 292 292 292 292 292 289 290 290 292 297 295 293 296 290 292 290 289 289 288 288 288 286 285 286 282 281 285 285 285 284 283 282 282 282 282 282 282 283 285 285 286 286 287 287 289 290 292 297 307 311 312 316 320 321 321 321 321 320 318 317 315 315 315 315 316 316 315 316 316 316 316 316 315 314 314 314 313
291 291 292 292 292 291 292 293 293 292 293 291 290 292 292 292 291 291 295 293 292 294 294 292 289 289 288 287 288 288 291 287 281 282 281 282 283 282 281 281 281 281 281 281 282 282 283 284 284 284 285 285 286 287 289 292 297 314 317 317 318 319 320 319 319 318 316 315 313 314 314 315 315 315 315 315 314 314 313 313 312 312 311 311 311
292 291 291 292 292 291 291 291 292 291 292 291 292 290 289 289 291 289 289 292 294 296 293 290 294 291 288 288 289 290 286 285 286 286 283 280 279 281 281 280 280 280 280 280 281 281 281 282 283 282 283 283 284 285 287 288 292 296 312 315 316 317 318 317 317 316 314 313 312 313 313 314 314 314 313 313 312 311 310 310 310 309 309 309 309
290 291 291 291 293 292 290 290 291 291 294 291 289 289 290 291 290 289 290 290 292 292 292 292 291 289 288 286 289 287 286 287 285 284 282 279 279 279 278 280 279 279 280 280 280 281 281 281 282 281 282 281 281 283 285 287 290 292 311 313 314 315 314 314 314 314 313 311 311 311 311 312 312 311 310 310 309 308 308 308 307 307 306 307 308
290 289 290 290 291 291 291 291 291 291 293 290 288 288 288 289 290 291 289 290 288 290 293 292 292 290 291 289 287 285 286 285 283 284 284 282 281 279 278 277 276 277 279 279 279 280 280 280 280 280 279 279 280 281 282 286 289 291 302 310 311 312 312 311 312 312 310 310 311 310 310 310 310 309 308 307 307 306 306 307 306 305 306 307 306
290 290 289 289 289 291 291 291 291 292 293 289 289 290 289 289 288 287 288 289 288 288 288 288 289 289 289 291 291 291 289 286 286 284 282 281 280 278 277 277 276 276 277 278 279 279 279 279 279 278 278 278 279 279 280 283 288 291 293 304 307 308 309 310 310 310 309 310 310 309 308 308 307 306 305 305 305 306 306 306 305 305 305 305 304
288 289 289 288 290 290 290 290 291 290 291 290 289 289 288 287 287 288 288 286 287 289 287 287 287 288 288 290 291 291 290 289 289 288 286 284 283 279 276 276 276 276 278 277 278 278 278 278 278 277 277 277 277 279 279 280 284 289 288 295 305 306 306 308 308 308 308 308 308 307 306 305 305 304 304 304 304 304 304 304 303 303 302 302 302
290 290 290 289 290 290 289 290 290 290 290 288 287 287 287 287 287 287 287 287 288 288 288 288 288 289 289 287 287 287 287 286 289 287 286 285 282 278 277 277 275 275 277 276 276 277 278 278 278 277 276 276 277 277 278 279 281 287 287 287 297 302 305 306 307 307 307 308 308 307 305 303 302 303 303 303 303 302 302 301 301 301 301 300 300
292 291 292 290 290 291 291 290 289 289 289 288 287 286 286 287 287 287 286 287 286 287 288 287 286 286 286 286 285 286 283 286 288 287 286 283 281 279 277 276 276 276 277 276 276 276 277 277 277 277 276 275 275 275 275 277 280 285 285 283 287 297 300 302 303 306 308 309 308 306 304 302 302 302 301 301 301 300 300 299 299 299 299 299 298
292 293 290 290 290 289 289 289 288 287 288 287 288 286 286 287 287 286 287 285 286 286 286 285 286 284 284 286 286 283 283 285 287 288 287 286 283 280 279 276 276 276 276 276 275 275 275 276 276 275 275 276 275 275 275 275 279 283 282 278 281 292 297 301 303 305 306 306 306 305 303 302 302 301 301 300 300 299 298 297 297 297 298 297 298
292 290 289 290 289 289 289 288 287 287 287 287 287 286 286 286 286 286 286 285 285 285 285 285 285 283 283 282 283 282 282 284 286 287 287 286 284 282 282 281 278 275 275 274 274 274 276 275 275 275 274 274 275 275 277 276 276 279 279 277 278 282 295 298 300 302 303 304 304 302 302 302 301 300 300 299 299 298 297 296 296 297 297 297 296
291 290 289 288 289 289 288 288 287 287 286 287 287 286 286 286 286 285 285 283 284 284 283 284 282 282 281 281 283 281 280 282 285 286 286 285 284 284 284 284 284 279 275 274 275 274 275 275 274 275 274 274 274 274 274 274 277 276 274 275 277 278 291 294 296 297 298 299 299 299 299 300 300 299 299 298 298 297 296 296 296 296 295 295 295
291 290 289 288 288 289 288 288 287 286 286 286 285 284 284 284 284 284 284 282 283 282 282 282 281 281 281 280 280 280 280 281 284 285 286 286 284 284 284 283 285 283 279 278 277 275 275 275 275 273 274 273 274 274 274 273 278 275 273 274 276 279 287 291 292 293 294 294 296 297 298 298 298 298 298 297 297 295 295 295 295 294 294 293 293
290 289 288 288 288 288 287 287 286 285 284 284 284 284 284 284 283 283 281 282 283 282 281 281 281 281 280 280 279 279 279 280 281 282 284 285 284 283 282 282 283 283 282 280 276 276 276 274 273 274 273 272 273 273 273 273 275 274 272 273 275 280 281 285 289 289 290 291 292 293 295 296 297 297 297 296 295 294 294 294 293 293 292 292 290
290 290 289 288 287 287 287 286 285 285 284 284 284 284 283 284 284 283 282 282 282 282 281 281 281 280 280 280 279 279 278 278 279 280 281 283 283 282 281 282 281 282 283 280 279 275 275 275 273 272 272 272 273 272 272 273 274 275 271 272 274 276 274 275 286 286 287 287 288 289 291 292 293 294 295 294 293 292 292 292 291 291 290 288 287
290 289 288 288 287 287 286 286 286 285 284 284 283 283 283 283 283 283 281 282 282 282 281 280 279 279 280 280 279 278 278 278 279 279 279 280 281 281 280 280 281 281 281 280 277 272 272 273 273 271 271 272 271 271 270 270 270 272 272 271 271 271 272 273 277 284 284 285 285 286 287 288 289 289 290 289 289 289 289 288 288 287 286 285 285
289 289 288 288 287 287 286 286 285 285 284 284 283 283 283 283 282 283 282 281 282 281 280 280 279 279 279 279 278 278 278 278 278 278 279 279 280 280 279 280 280 280 280 277 276 273 271 271 271 271 270 271 270 271 270 269 269 270 270 270 271 271 271 271 273 279 283 283 283 284 285 285 284 285 285 285 285 285 284 284 283 283 283 283 284
289 289 288 287 287 286 286 285 285 284 284 284 283 283 283 283 283 282 282 282 282 282 280 281 279 279 279 279 278 277 278 278 278 278 278 278 279 280 280 279 280 280 279 278 277 274 270 270 271 269 270 271 270 270 270 270 270 270 269 269 270 271 272 271 272 275 281 281 282 283 283 283 283 283 283 282 282 281 281 281 281 281 282 282 282
288 288 288 287 286 286 286 285 284 285 284 284 283 283 283 283 283 283 282 282 282 282 282 281 280 279 279 279 278 277 278 278 277 277 277 277 278 279 278 278 279 279 278 277 278 275 272 270 270 269 270 269 270 270 271 270 269 269 269 269 270 270 270 271 271 272 277 279 279 280 281 281 281 281 281 281 280 280 280 280 280 280 281 281 281
289 288 287 286 286 285 285 285 285 284 284 284 283 283 283 283 283 283 282 282 282 282 282 281 281 279 279 280 279 278 278 278 277 277 276 276 277 277 277 276 277 278 278 277 276 275 273 271 270 270 270 269 270 270 270 268 269 268 269 268 269 269 269 270 270 272 275 276 276 276 277 278 279 279 280 279 279 279 278 278 278 279 279 280 280
289 288 288 286 286 285 285 285 285 284 284 283 283 283 283 282 282 282 282 282 282 282 281 281 280 280 280 280 279 278 278 279 278 277 276 276 276 276 276 276 276 277 276 275 275 275 274 272 269 268 268 268 268 269 270 269 268 267 267 268 268 269 268 268 269 270 270 270 269 270 272 273 275 277 278 278 277 277 277 277 277 277 278 279 279
289 287 286 286 285 285 285 285 284 284 283 283 283 283 282 282 282 282 281 281 281 281 281 280 280 279 279 279 279 278 278 279 279 277 276 276 276 276 276 275 276 276 275 275 275 274 273 271 269 268 267 268 268 267 269 269 269 268 267 267 266 268 268 268 268 269 269 269 272 273 272 271 272 272 275 276 275 275 275 275 276 276 277 278 278
288 287 286 286 285 285 285 285 284 284 283 283 282 282 282 282 282 281 281 281 281 280 280 279 279 279 279 279 279 278 278 279 279 278 277 276 276 276 275 275 275 275 275 274 274 273 272 270 269 268 268 267 267 268 269 268 267 268 268 268 267 267 267 268 268 267 269 268 268 268 269 268 269 270 271 272 273 273 273 272 274 275 276 277 278
287 287 287 286 285 284 284 284 283 283 283 283 283 282 282 281 281 281 280 280 280 280 279 279 278 278 278 278 278 278 279 280 281 280 279 279 276 276 275 275 275 275 274 274 274 272 271 270 268 268 267 267 267 266 266 265 266 266 268 268 268 268 268 267 268 269 269 268 268 267 267 267 266 267 267 266 269 268 269 271 271 274 275 277 277
287 286 286 285 285 285 284 283 283 283 283 283 284 286 285 283 281 281 281 280 280 279 279 278 277 277 277 277 278 280 281 281 281 281 281 281 280 278 276 275 275 275 274 273 273 272 271 269 268 267 266 266 266 266 266 266 267 268 267 267 267 267 266 267 267 267 269 268 267 265 266 267 265 267 267 266 267 267 267 267 269 273 275 276 276
285 285 285 284 284 284 284 284 283 283 283 283 285 287 287 287 283 281 280 280 279 279 279 278 278 277 277 276 276 279 280 281 281 281 281 281 281 280 279 279 278 276 275 273 273 272 271 269 269 268 267 266 266 267 266 267 267 267 266 267 267 267 265 265 264 266 268 267 267 265 265 267 266 265 267 266 266 266 267 267 271 273 274 275 275
284 284 284 285 285 284 284 284 283 283 283 285 287 287 288 288 286 282 280 280 279 279 279 278 278 277 276 276 276 277 278 278 278 279 281 281 281 281 280 280 280 280 279 276 274 272 272 270 269 268 268 267 267 267 267 267 266 267 267 267 267 266 266 266 266 264 267 267 265 265 264 266 265 265 265 266 266 266 266 268 271 273 274 274 275
284 284 284 284 284 284 284 284 283 283 283 286 287 287 288 288 288 285 281 280 280 279 278 278 278 277 277 276 275 276 277 280 279 278 278 279 281 281 280 280 280 280 279 279 279 275 274 271 270 269 269 269 267 268 268 268 269 266 267 266 267 267 267 267 267 264 265 267 265 265 263 265 264 264 263 265 265 265 265 267 270 272 273 273 274
284 284 284 284 284 284 284 284 283 283 283 285 287 287 287 288 288 287 282 280 280 279 278 278 278 277 277 276 276 276 276 278 277 277 277 277 277 277 277 276 276 278 279 279 277 276 276 273 271 270 271 270 268 269 269 270 268 267 267 266 268 266 266 265 267 266 266 267 264 265 262 264 263 263 263 264 265 264 265 267 270 271 272 272 273
284 284 284 284 284 284 283 283 283 283 283 285 286 287 287 288 288 288 283 281 279 279 278 278 278 278 277 277 277 276 276 277 277 277 276 276 276 275 274 274 274 275 275 275 274 274 273 272 271 271 270 270 270 269 270 270 269 269 269 268 268 267 267 266 265 266 265 267 265 265 262 265 264 262 263 264 263 263 264 266 268 270 271 271 272
284 284 284 284 284 283 283 283 283 283 283 286 286 287 287 288 288 286 283 281 279 278 278 278 278 277 277 277 276 276 276 275 278 279 278 276 275 274 273 273 274 274 273 275 275 275 272 271 270 270 270 270 271 270 270 269 269 269 269 268 268 266 265 264 263 266 263 266 265 264 262 262 265 262 262 263 263 262 264 264 266 269 270 270 271
283 283 283 283 283 283 283 283 282 283 282 285 286 286 287 288 287 285 283 281 279 278 277 277 277 276 276 276 276 275 275 275 279 280 280 277 274 273 272 272 272 271 271 273 275 275 275 274 274 275 275 275 275 274 274 273 271 270 267 265 264 266 263 261 262 264 262 265 263 264 263 261 264 261 260 262 262 261 262 263 263 266 268 269 270
283 283 283 283 282 282 282 282 282 282 282 283 286 286 287 287 286 284 283 281 279 277 276 276 276 276 276 277 276 275 274 275 280 281 280 276 272 272 271 271 270 270 270 271 272 273 275 275 275 275 276 275 275 275 275 274 273 271 266 263 266 265 262 264 259 263 262 264 263 265 260 260 262 261 260 259 260 260 261 261 263 263 265 264 266
283 282 281 281 281 281 281 282 282 281 282 282 285 286 286 287 286 284 283 280 278 276 275 274 274 274 275 276 277 276 275 276 281 281 281 276 272 272 271 271 270 269 270 270 270 271 271 271 272 272 272 274 273 272 272 274 273 271 268 267 268 264 262 263 262 261 258 261 264 265 258 259 260 259 259 254 255 258 259 258 259 260 261 261 262
Wind_Speed
2 1 0 1 2 2 3 3 2 4 4 3 3 4 5 5 5 5 5 6 6 7 6 7 7 8 9 10 10 10 10 10 10 10 10 9 9 16 24 25 24 20 21 21 21 23 21 20 24 26 26 25 25 24 23 22 23 22 22 22 23 23 22 20 19 19 18 17 16 17 16 14 12 12 13 13 13 13 12 10 10 8 12 12 12
3 2 1 1 2 2 3 3 3 3 4 5 4 3 4 5 4 5 5 6 6 6 6 7 8 8 8 9 9 9 9 9 10 10 9 10 11 12 25 26 25 23 22 22 24 23 23 22 20 20 24 25 24 21 21 22 21 20 20 20 21 21 21 20 19 17 18 18 16 16 17 17 14 12 14 14 12 13 14 14 15 15 12 13 12
4 3 2 1 1 2 3 3 3 4 3 3 3 3 2 3 3 4 5 5 5 5 5 7 7 8 8 9 8 8 8 8 9 10 10 9 10 11 15 24 26 25 26 24 21 22 22 23 22 18 23 22 21 21 20 20 20 20 19 19 20 20 20 19 19 18 17 16 16 17 17 16 14 12 14 16 17 16 14 14 12 13 13 13 12
4 3 3 2 2 2 2 3 3 3 3 3 3 3 2 3 3 3 3 4 5 6 5 6 7 7 7 8 8 8 8 8 9 10 10 10 10 10 11 14 22 25 26 27 26 20 18 20 20 21 20 17 22 21 21 19 19 17 18 19 19 20 20 18 16 15 14 12 16 17 16 14 14 12 17 15 14 15 15 14 13 13 13 12 11
3 4 4 3 2 2 2 2 2 2 2 2 2 3 3 4 5 4 6 5 6 6 6 7 7 7 8 8 8 9 8 8 9 10 10 10 10 10 10 12 13 18 22 25 25 26 19 14 16 17 15 17 19 19 19 20 20 16 14 17 19 19 19 18 17 17 15 14 17 17 16 13 15 17 17 17 16 15 15 14 13 13 12 12 11
4 3 3 4 2 2 1 2 2 2 2 2 4 3 5 5 3 6 6 6 6 5 7 8 6 7 7 7 8 8 7 9 9 9 9 9 9 10 11 10 10 10 12 19 24 24 25 16 13 15 14 16 16 16 16 15 15 17 16 13 12 19 17 17 16 16 17 14 17 18 17 17 17 17 17 16 16 15 15 14 14 13 12 11 11
3 5 3 4 3 2 1 1 1 1 3 3 3 4 5 5 3 7 6 6 6 6 7 7 7 8 7 7 8 7 8 9 9 9 10 9 9 10 10 10 10 10 10 10 14 21 21 26 23 15 16 14 13 12 17 16 13 14 14 15 14 15 17 17 17 16 16 16 18 17 17 17 16 15 16 15 14 14 14 13 13 12 11 10 9
3 3 4 3 4 3 1 0 1 2 3 2 3 5 4 5 4 3 8 6 6 7 6 8 7 8 7 8 7 8 8 8 9 9 9 8 10 10 10 10 10 10 9 10 10 14 24 23 24 20 18 18 14 11 14 17 13 10 13 15 12 14 15 16 17 15 14 14 15 15 15 15 14 13 13 13 12 12 12 12 12 10 9 9 9
3 3 4 4 4 4 1 1 1 3 3 3 4 2 3 6 5 4 6 6 7 7 7 7 7 8 8 9 8 8 9 8 9 8 8 10 10 10 10 10 10 10 9 10 10 10 16 21 21 26 23 16 19 19 16 20 20 17 20 18 19 22 22 20 20 18 18 17 16 16 14 13 12 14 13 13 13 13 13 12 13 14 13 13 12
3 3 3 3 4 4 3 2 2 3 4 4 3 2 3 5 6 4 4 7 6 8 7 7 7 8 9 9 9 9 8 9 8 8 9 11 10 11 10 9 10 10 10 10 10 10 9 14 20 22 25 23 21 24 25 25 25 25 23 20 21 24 24 24 23 24 24 25 23 21 22 23 22 18 17 18 18 16 16 16 16 16 16 16 16
4 3 4 4 4 4 4 3 3 4 4 4 3 3 4 3 8 6 6 5 7 6 8 8 8 8 9 9 9 10 8 9 9 10 10 10 10 9 9 10 9 11 10 10 10 10 11 10 10 9 13 23 20 21 24 24 25 24 24 25 24 25 24 24 24 23 23 24 23 22 23 23 22 21 19 21 20 20 18 20 21 21 21 21 20
4 4 4 4 5 4 4 3 3 4 4 4 3 4 6 7 7 10 9 6 5 6 6 10 9 9 9 9 10 10 12 10 11 10 9 10 9 8 10 8 9 10 11 10 10 11 11 10 10 9 8 14 20 19 18 20 21 23 24 24 25 24 24 23 23 23 22 22 23 23 22 22 23 22 20 21 22 22 21 21 23 23 22 21 21
4 4 5 4 4 4 4 3 3 3 4 4 4 4 3 5 7 6 11 8 4 3 4 5 10 8 7 9 10 10 11 11 12 11 10 8 8 9 8 9 9 10 9 9 10 11 10 11 10 9 10 9 11 13 18 18 19 21 22 22 22 22 23 22 22 22 22 22 21 21 20 20 20 20 19 20 20 21 22 23 22 21 21 21 20
4 4 4 5 5 5 5 5 4 4 3 3 3 3 4 5 7 6 2 7 6 5 5 2 5 5 6 4 7 7 8 11 12 11 10 9 8 9 8 9 10 8 8 8 10 10 10 9 9 10 10 8 9 9 9 11 13 19 20 22 21 23 24 23 22 22 22 21 21 21 20 19 19 19 19 19 20 20 21 20 21 22 21 21 21
4 4 5 4 6 6 6 5 5 5 5 4 4 4 5 7 7 9 6 1 3 2 1 0 5 4 3 5 1 4 6 7 7 11 10 9 9 10 9 9 11 9 7 8 9 10 9 9 10 10 10 10 9 9 8 8 14 18 20 20 22 23 22 22 22 23 23 22 21 21 21 20 20 20 20 19 19 19 20 20 21 22 21 20 20
4 4 4 5 6 6 5 5 6 5 6 6 5 5 5 4 4 5 8 7 4 5 0 1 4 7 2 2 2 4 3 5 4 7 7 9 11 10 8 9 9 9 9 11 10 9 9 9 11 10 10 10 9 9 8 7 10 17 19 19 20 21 22 23 24 24 22 22 22 21 21 21 21 21 21 20 20 19 19 21 21 21 21 20 20
4 4 5 6 5 5 6 6 6 5 4 6 6 7 7 6 6 7 8 9 7 3 2 1 5 1 6 5 2 2 1 3 2 6 8 9 11 10 9 10 10 10 9 9 8 9 9 10 10 10 11 11 11 10 9 9 7 6 11 16 19 20 21 21 21 22 22 21 21 21 20 20 20 20 20 20 21 20 21 22 21 22 21 21 20
4 4 5 4 5 5 5 6 5 5 5 6 5 4 5 5 7 8 7 4 8 6 4 0 2 1 1 1 3 3 8 5 2 1 3 6 6 8 9 9 8 9 8 9 10 9 9 9 10 10 11 11 10 10 10 10 8 6 7 14 21 20 21 21 22 22 21 20 19 19 19 19 19 20 21 20 20 21 21 21 21 20 20 19 18
4 4 4 4 5 5 5 6 6 6 4 5 5 7 7 7 4 5 7 4 4 7 7 6 2 1 1 0 1 1 7 8 2 5 2 4 5 6 8 8 8 9 10 9 9 9 9 8 9 9 10 9 10 9 10 10 13 9 17 19 20 20 20 21 21 20 18 18 18 19 18 18 18 18 18 18 18 18 18 18 18 18 17 17 16
5 5 4 4 5 5 5 5 5 5 5 6 7 5 4 2 4 4 3 5 6 8 7 6 10 4 1 3 4 6 3 2 4 8 6 6 1 2 3 6 8 8 8 9 9 9 8 8 8 8 8 9 8 8 8 7 10 9 9 17 18 20 20 19 20 19 17 16 16 17 17 18 18 18 18 18 17 16 16 16 16 16 15 13 14
4 5 5 5 4 5 5 5 5 5 5 5 4 4 6 6 5 5 6 6 6 4 6 8 6 7 5 3 5 4 4 4 4 4 6 5 1 1 1 1 4 8 8 7 7 7 7 7 7 7 7 7 8 8 8 10 7 11 11 17 19 18 18 18 19 18 16 14 15 15 15 17 18 17 17 16 15 15 14 14 14 14 12 15 17
5 4 4 4 4 4 5 6 6 6 5 6 4 4 4 5 6 7 6 6 4 5 7 6 7 5 5 7 5 3 3 3 2 5 6 3 8 6 4 2 3 4 5 7 7 7 7 7 7 8 7 7 8 8 8 9 8 8 8 17 16 17 16 16 16 15 13 14 17 16 16 17 17 15 15 14 14 13 14 16 15 13 15 17 15
6 5 4 4 4 4 5 6 5 5 5 5 7 7 6 6 5 4 5 6 6 5 3 4 6 6 6 8 9 10 9 7 8 5 6 5 7 5 3 2 3 4 4 3 4 5 6 7 7 7 7 7 7 8 8 8 8 12 16 11 15 15 15 15 15 14 14 16 15 16 16 16 14 14 13 13 13 15 16 15 14 15 16 15 15
4 4 5 4 5 5 5 5 6 5 6 6 5 5 5 4 4 6 5 4 4 6 5 6 7 7 7 7 8 8 7 6 9 9 9 8 10 10 7 4 3 2 1 1 3 5 6 7 6 6 6 6 7 7 8 8 10 20 12 16 10 12 13 13 13 12 13 14 15 15 15 14 13 13 13 14 15 15 15 14 14 14 14 14 15
7 7 7 7 6 6 7 7 6 6 5 5 4 4 5 5 5 5 6 6 7 7 7 8 9 9 9 7 6 7 7 3 7 7 5 8 12 11 2 2 4 3 1 1 1 2 5 5 5 5 5 6 6 7 7 7 8 15 16 11 21 11 11 11 11 11 12 13 15 14 14 12 11 13 13 14 14 14 14 13 13 13 13 14 14
8 10 8 7 6 7 6 6 5 5 5 5 5 5 5 6 5 6 7 7 6 7 8 7 7 7 6 8 7 7 5 5 7 8 10 10 9 13 9 4 3 3 0 0 0 2 2 4 5 4 5 5 6 5 6 7 7 15 16 11 14 17 9 9 9 10 13 14 15 14 13 12 12 12 12 14 14 13 13 13 12 12 12 13 12
9 8 5 7 7 5 5 5 5 5 5 5 5 5 5 5 6 7 6 7 8 8 7 8 8 7 6 6 6 5 5 6 8 8 9 11 13 13 14 12 3 1 0 1 1 1 1 1 3 4 4 4 4 5 5 5 7 14 12 8 8 14 10 11 10 12 12 12 14 13 12 12 12 12 13 13 13 13 12 12 12 12 12 12 12
6 4 6 6 7 7 6 6 6 6 7 7 8 7 7 8 7 7 8 5 7 7 6 6 5 5 5 3 5 6 5 7 7 9 9 9 11 11 12 13 14 6 3 3 2 3 3 1 1 3 3 3 3 3 6 6 6 10 10 6 6 8 10 15 12 12 12 12 12 12 11 11 11 11 11 13 13 12 11 11 11 12 12 12 13
6 5 6 6 7 8 8 8 8 7 8 8 8 8 7 6 5 5 4 2 3 4 3 5 3 4 4 6 6 6 6 5 6 7 8 8 9 11 12 13 10 10 8 7 7 6 6 4 3 0 2 2 3 4 4 4 6 7 5 6 6 7 9 14 12 11 11 11 11 10 10 10 10 11 11 11 12 11 11 10 11 11 11 11 11
7 6 6 7 7 8 8 8 7 7 7 4 4 3 3 3 2 2 1 3 4 3 3 4 5 5 4 4 4 6 5 6 8 8 9 10 10 10 9 6 8 11 9 10 8 6 5 5 2 3 2 2 3 4 3 4 8 6 5 6 7 6 12 11 11 11 10 9 9 9 10 10 10 11 11 11 11 10 10 10 10 10 9 9 10
8 8 8 8 8 8 7 6 5 5 4 4 4 5 5 6 4 5 3 5 5 6 5 6 6 6 7 7 5 5 5 6 6 6 6 7 9 8 7 5 6 5 11 7 6 5 5 8 3 2 5 3 3 4 4 4 5 6 5 6 6 11 13 6 12 10 10 10 8 8 9 9 9 10 10 10 10 10 9 9 9 9 9 9 10
8 9 8 8 8 8 7 7 7 6 6 5 6 6 6 6 6 6 5 6 6 7 6 5 6 6 7 7 6 6 4 4 5 5 6 5 6 7 7 6 5 5 8 7 7 7 4 4 5 5 5 6 4 6 5 4 5 8 5 5 6 9 6 6 11 11 10 9 9 9 8 9 8 9 10 10 9 9 9 9 9 9 10 10 10
8 8 8 9 9 9 8 8 8 8 8 7 7 7 7 7 7 7 6 7 7 6 6 6 4 6 7 7 6 4 4 6 6 6 6 6 6 6 5 6 6 6 7 6 7 7 3 2 6 6 5 6 4 4 5 4 4 4 5 4 4 5 5 4 3 12 12 11 10 10 11 10 10 10 10 10 10 10 10 10 10 10 10 10 10
8 9 9 8 7 8 8 8 8 8 8 9 9 8 9 9 8 6 8 9 8 7 6 8 7 6 6 7 7 6 5 6 6 7 7 7 7 7 7 7 7 7 4 5 5 7 8 4 5 5 6 4 4 4 5 6 5 3 4 2 2 3 4 4 4 5 12 11 11 11 11 12 12 12 11 11 11 11 11 10 10 10 10 9 10
7 8 9 9 8 8 8 8 9 9 10 10 9 10 10 11 11 9 9 10 10 10 10 10 10 8 8 8 8 7 5 6 6 6 5 7 6 8 8 6 7 6 5 4 7 5 10 7 6 7 5 5 3 5 4 4 5 4 4 3 2 3 3 4 4 2 10 10 11 11 11 11 11 11 12 12 11 11 10 11 11 10 10 10 10
8 8 8 9 8 9 10 9 10 10 10 10 10 10 12 12 11 12 10 11 11 11 11 11 10 10 11 10 9 9 7 7 7 6 5 5 7 7 7 5 5 6 5 4 4 7 7 10 8 6 6 5 3 5 5 5 5 4 4 4 3 3 2 3 3 4 7 10 10 10 9 9 9 9 10 10 10 10 11 11 11 11 12 11 11
8 8 8 7 9 9 10 11 11 11 11 9 9 10 9 8 9 9 10 10 10 10 10 10 9 11 10 12 10 10 9 9 7 7 7 8 6 6 7 6 6 5 4 4 5 7 11 12 10 5 4 3 3 6 6 7 6 4 4 4 4 4 3 2 2 4 7 10 10 11 10 9 9 9 8 9 9 10 11 11 11 11 11 10 10
9 9 9 7 8 10 9 10 9 9 8 9 10 10 10 8 8 8 8 9 9 9 9 8 9 9 10 10 10 11 11 12 11 9 8 9 7 7 7 7 6 6 6 5 6 7 9 11 10 9 6 6 7 6 7 6 8 7 6 5 4 3 4 4 3 3 2 3 2 4 7 8 9 9 8 8 9 10 10 10 10 10 10 9 8
8 7 6 7 7 8 9 8 9 10 9 9 10 10 10 9 9 9 9 9 9 9 8 8 8 8 9 8 9 11 12 11 11 12 11 9 8 9 8 8 7 8 8 7 7 8 9 12 4 3 7 5 6 8 7 5 4 5 7 7 4 4 3 5 5 4 3 2 6 9 7 6 6 5 6 7 8 9 8 8 8 8 8 8 7
9 9 10 10 10 9 10 10 10 9 9 10 10 10 9 10 9 10 10 9 9 8 7 7 7 8 8 8 8 10 11 10 9 9 10 10 7 8 7 7 8 8 8 7 7 8 9 11 8 10 6 8 6 3 5 6 5 4 6 5 8 8 6 5 4 5 5 4 4 3 4 4 4 5 6 6 7 7 7 6 6 7 7 8 7
9 10 10 10 10 11 9 9 9 9 9 10 10 10 10 10 10 10 10 9 9 9 8 7 7 8 8 8 8 8 8 8 8 8 9 8 9 10 7 8 8 8 7 7 8 8 9 10 6 4 7 7 7 9 10 10 10 8 8 5 4 5 5 5 4 4 3 4 4 4 3 3 2 3 2 1 2 5 4 5 4 6 7 7 7
9 9 8 9 10 11 10 10 9 9 10 9 12 15 13 11 12 10 9 10 10 10 10 9 9 9 9 8 8 11 12 12 12 13 14 12 10 7 10 11 11 9 9 10 9 10 12 15 10 11 9 8 9 10 8 7 5 6 7 7 7 7 6 5 4 3 3 4 4 3 3 3 2 2 4 1 2 3 1 1 2 3 5 7 7
8 7 7 9 9 8 10 10 11 10 10 10 15 17 20 19 12 11 11 11 10 11 11 11 11 11 9 8 7 9 10 11 10 14 15 15 14 12 12 12 11 13 13 11 10 12 15 17 9 6 8 7 8 7 7 8 7 7 8 7 7 8 8 9 6 5 4 5 5 5 3 5 4 3 4 3 3 2 1 2 3 3 4 5 5
7 5 8 10 9 9 9 9 11 10 10 10 16 18 19 19 16 12 10 10 10 11 11 11 10 10 10 8 8 7 8 10 9 10 13 15 15 13 15 16 15 13 9 11 14 11 12 12 9 8 12 12 10 10 9 9 9 8 8 7 8 8 9 7 7 6 6 7 5 4 4 5 3 3 4 4 4 2 2 3 4 4 4 4 5
6 9 11 9 10 9 10 11 11 10 10 11 17 18 18 19 19 14 10 10 10 11 11 12 11 10 9 9 9 8 7 14 11 9 9 10 13 15 15 15 13 13 11 9 6 5 13 14 12 12 11 9 10 10 9 9 9 8 8 7 7 6 5 4 5 7 7 7 5 5 4 5 5 3 4 4 5 3 3 4 5 5 5 5 5
9 10 9 10 9 10 10 10 10 9 10 10 17 17 18 19 19 17 11 11 11 11 12 12 11 11 12 11 11 10 9 10 9 10 10 9 9 9 8 7 6 8 10 9 7 6 7 8 7 10 8 7 7 9 9 12 11 11 10 9 8 7 6 5 5 7 5 5 4 4 3 5 5 4 3 4 4 3 3 5 6 6 6 6 5
9 10 10 10 10 9 9 9 9 9 10 13 16 18 18 19 19 16 11 9 10 10 10 11 11 12 12 11 12 11 11 11 10 12 11 11 8 7 6 6 5 5 4 4 5 4 4 5 3 5 6 7 8 10 10 9 8 6 6 8 8 7 8 7 6 6 3 4 4 4 3 5 5 3 2 3 1 2 3 3 6 7 7 6 5
6 6 7 7 9 8 8 9 9 11 9 12 15 17 18 18 19 12 10 11 10 10 10 10 10 10 11 11 10 13 11 11 13 18 13 8 8 8 8 7 7 5 4 4 7 7 6 5 5 6 6 8 11 10 10 9 8 8 9 8 8 7 7 6 5 6 3 3 5 2 2 2 2 2 2 1 1 2 3 2 6 9 8 7 7
7 8 9 8 7 8 9 9 10 10 8 10 15 17 18 20 15 10 10 9 10 10 10 9 10 10 10 11 12 11 9 8 16 20 19 14 8 9 9 8 6 6 6 5 9 11 12 13 14 15 16 17 17 17 17 17 11 11 8 8 7 8 6 6 3 4 4 4 1 4 1 2 2 2 1 1 1 3 4 3 3 7 8 8 8
9 9 7 6 7 7 8 10 10 10 9 10 15 17 19 20 17 11 10 10 10 9 8 7 7 8 9 11 8 11 8 10 19 21 21 14 8 8 9 9 9 8 7 7 5 8 13 15 16 17 17 17 18 19 18 18 17 12 8 11 8 7 5 6 7 3 1 2 2 5 4 3 2 1 1 4 3 2 1 3 3 5 8 7 9
7 4 5 6 6 6 7 8 9 11 9 8 14 17 19 20 16 10 9 8 9 8 8 7 6 8 6 11 12 11 9 14 22 21 22 16 13 10 11 8 9 9 8 8 9 10 9 10 10 11 11 14 11 10 11 17 16 11 6 5 6 7 9 5 5 4 2 3 5 7 5 4 4 4 4 4 4 3 3 2 3 3 2 3 4
Wind_Direction
130 106 36 23 341 355 346 347 351 358 355 2 16 358 2 2 5 9 6 6 7 18 16 26 25 28 31 27 21 17 14 17 18 15 12 13 8 18 21 29 33 38 63 65 67 70 78 86 94 103 105 103 101 102 106 108 109 108 111 111 112 111 107 106 103 100 102 104 112 123 130 125 130 130 133 130 127 108 102 115 115 117 124 118 117
144 151 100 10 7 357 356 354 359 353 9 3 354 7 5 1 13 20 20 10 20 7 22 34 29 31 33 36 27 20 12 13 17 19 15 15 17 14 21 26 29 28 34 54 58 60 67 76 72 93 101 106 106 106 109 110 108 111 109 107 107 105 105 108 108 106 107 112 115 109 106 108 102 112 114 111 110 111 110 103 101 96 89 97 98
141 149 120 101 23 24 356 341 15 6 2 352 340 8 12 35 26 25 30 21 23 7 23 42 36 33 33 36 26 24 19 14 19 20 22 19 22 19 20 21 21 29 29 33 47 54 66 76 82 84 95 102 105 109 109 106 110 112 112 110 112 109 109 108 106 109 112 117 118 116 115 113 120 121 122 120 115 112 107 114 117 118 118 109 106
140 148 126 112 61 23 340 10 1 349 360 347 354 4 34 42 40 36 50 48 34 28 24 42 39 31 32 33 24 29 21 17 22 22 20 22 24 26 23 25 23 25 29 28 34 44 58 69 74 76 79 95 107 108 104 102 99 100 113 116 114 115 114 110 107 111 115 114 120 110 110 126 130 129 119 114 124 126 128 132 131 121 115 114 117
168 145 140 123 106 51 15 7 343 344 354 355 8 18 47 46 39 37 50 53 46 35 40 43 39 30 32 29 29 27 22 24 25 24 21 22 26 24 27 24 23 23 24 28 27 31 40 76 82 85 87 97 102 108 108 112 116 116 109 114 118 118 118 121 127 128 127 128 120 124 137 147 142 133 130 138 138 133 132 126 123 121 122 125 122
143 136 127 120 109 98 39 356 348 356 10 22 49 37 58 62 46 63 54 59 55 41 52 42 34 37 38 32 38 27 21 29 28 26 23 24 24 32 31 26 20 23 24 21 25 27 32 60 97 102 102 90 96 106 110 100 100 107 109 95 110 119 119 120 121 128 133 140 138 141 146 138 133 134 137 140 138 134 131 128 125 125 125 125 126
161 143 137 127 119 95 43 344 328 32 47 30 70 56 68 71 55 86 67 64 64 55 61 57 42 39 30 37 39 32 29 31 26 28 25 23 29 32 34 26 25 25 20 23 23 19 25 40 48 74 73 83 82 105 113 108 105 110 114 130 136 119 119 121 122 123 127 130 127 130 131 133 132 133 132 131 129 127 127 124 124 125 124 124 126
170 147 133 144 137 128 164 359 29 68 66 44 61 63 78 80 46 85 98 67 73 67 57 61 51 46 37 39 40 37 38 28 27 27 23 26 31 30 30 31 26 23 19 23 21 14 21 24 33 47 68 69 74 85 117 121 109 98 115 115 116 111 118 120 116 119 126 118 122 124 124 123 122 122 123 123 125 127 130 131 127 124 126 126 123
166 167 135 147 139 135 168 128 90 95 77 62 64 46 94 92 62 46 96 103 86 82 65 62 57 50 43 40 35 41 41 30 28 26 21 33 28 28 28 26 26 21 22 23 20 19 17 21 24 39 39 62 71 78 93 98 104 99 95 98 100 104 103 94 98 95 96 96 106 109 106 110 121 121 115 116 116 118 117 116 112 111 108 108 107
157 166 131 142 150 147 146 134 121 97 86 74 69 60 71 104 91 49 80 107 96 93 87 76 67 59 48 42 37 43 39 36 31 29 29 28 28 27 23 23 24 24 22 24 21 21 19 19 26 32 33 35 52 67 71 76 82 83 85 93 92 86 88 91 88 87 87 86 82 84 88 83 80 80 97 98 95 96 99 100 98 95 91 87 87
162 165 144 150 137 138 144 152 138 113 99 91 80 82 83 80 110 96 66 73 111 104 107 98 81 69 61 47 47 43 43 42 38 37 32 28 27 21 22 23 21 24 23 22 21 20 22 26 27 31 36 36 39 58 68 72 76 78 76 79 84 84 83 87 87 86 85 87 86 84 85 85 84 84 83 84 86 88 89 89 86 82 79 76 77
172 170 163 156 148 153 149 148 149 129 124 117 117 124 125 114 114 115 105 85 73 110 114 104 86 73 69 60 52 48 44 43 42 38 34 32 26 21 26 16 26 22 23 20 22 20 22 21 24 23 27 39 42 44 62 72 73 76 77 75 78 81 82 81 83 84 83 83 83 84 83 84 85 82 78 81 83 83 81 80 79 79 79 79 78
177 164 169 165 156 145 136 147 155 141 146 158 155 141 133 128 125 118 124 118 113 138 132 104 102 75 64 63 57 49 50 44 43 36 33 29 27 30 23 26 22 25 18 21 25 25 22 20 20 21 21 19 27 24 48 64 75 78 81 82 80 82 82 79 80 81 80 80 80 79 80 81 82 82 83 82 82 81 82 82 82 81 81 80 79
181 184 168 163 157 161 159 163 161 147 133 132 140 132 132 133 135 100 71 133 146 181 185 87 32 125 117 76 61 56 51 46 40 33 30 27 26 31 28 29 25 18 17 23 27 27 24 18 22 25 21 12 18 16 21 57 69 78 82 86 86 84 83 84 84 82 80 82 82 83 83 84 83 82 81 79 79 77 78 82 79 75 76 77 75
182 185 172 179 174 168 177 162 165 150 131 137 136 145 162 160 165 143 137 25 131 192 207 155 140 136 112 99 19 47 5 30 32 33 26 26 26 30 24 28 22 20 16 27 26 22 20 17 22 25 21 19 17 16 16 27 69 74 80 87 91 91 91 89 86 84 83 83 84 84 83 82 81 79 78 77 78 76 74 74 71 71 72 72 70
181 187 191 184 177 182 166 166 173 174 160 156 164 166 165 178 176 164 146 141 166 211 207 185 148 141 69 95 171 120 55 5 24 14 14 29 30 28 25 23 20 22 24 30 21 19 19 18 24 20 20 18 12 16 18 14 48 80 83 87 92 93 94 94 92 88 86 84 84 83 83 82 83 82 80 80 81 79 77 73 70 68 70 70 68
180 190 189 193 188 179 173 177 171 179 165 162 173 182 185 182 175 169 178 156 185 194 200 172 181 113 147 107 66 41 173 194 135 27 12 22 20 23 25 22 23 24 26 25 22 24 17 22 20 22 19 16 16 10 11 13 18 42 81 88 93 97 94 94 92 90 87 86 84 83 83 81 82 83 80 77 74 75 75 70 68 69 67 66 67
184 187 200 186 190 187 179 170 179 173 182 179 179 156 175 178 195 183 187 218 161 158 174 17 127 108 158 164 164 170 164 191 84 95 20 51 14 22 26 21 24 27 27 26 21 20 19 22 20 23 19 19 14 17 9 9 7 58 68 88 89 94 99 99 92 89 83 83 82 81 80 83 86 85 84 83 79 74 70 68 69 68 66 67 66
192 191 195 199 191 185 182 182 179 179 175 156 175 193 189 192 172 185 200 168 140 171 179 180 90 61 54 136 161 123 145 132 164 114 72 346 20 16 17 17 23 30 28 24 19 21 19 20 22 22 23 18 20 15 17 10 6 22 90 94 92 90 91 91 91 92 89 84 84 79 81 85 84 84 84 83 81 76 73 72 70 69 68 69 65
190 195 196 196 189 190 184 178 177 184 173 186 191 195 181 171 175 184 168 184 184 180 183 177 176 195 57 68 78 97 74 92 130 154 141 132 11 5 33 25 30 32 27 21 19 19 17 18 23 22 21 20 18 18 12 340 350 351 75 90 92 91 87 91 89 89 88 87 88 83 84 83 84 81 79 80 78 76 74 71 70 68 69 72 66
202 197 197 195 193 188 182 182 182 185 188 187 190 178 188 178 171 174 187 198 201 190 158 190 193 170 123 69 87 79 66 71 95 93 136 124 176 216 189 277 47 29 15 17 17 20 18 19 22 24 20 19 14 15 11 3 347 338 70 85 89 88 88 87 86 88 88 94 88 88 88 87 81 80 81 80 79 78 76 73 71 71 73 71 73
213 205 199 197 194 184 184 191 194 188 185 185 178 183 195 194 193 189 182 182 192 179 191 182 191 170 167 154 134 118 80 91 83 108 69 85 156 177 197 140 72 6 2 11 15 15 20 18 25 21 21 16 11 8 10 17 9 3 37 77 92 93 92 88 91 93 96 94 93 94 88 84 81 81 82 80 80 81 80 77 74 75 74 72 76
203 208 199 192 195 192 190 199 194 190 183 172 189 192 195 196 191 176 176 178 176 172 154 171 172 173 174 171 171 174 172 175 182 185 143 130 99 113 90 71 122 114 10 11 21 24 26 28 27 22 17 14 8 7 11 3 7 7 5 39 89 94 93 94 94 97 97 96 100 95 86 87 87 85 86 86 84 80 77 76 77 74 71 75 74
213 215 210 198 195 198 199 194 193 187 195 191 189 190 187 182 177 185 186 178 163 165 166 163 177 181 188 190 188 191 182 176 177 167 158 158 143 145 142 141 75 73 201 353 49 42 32 35 25 27 19 19 15 8 5 6 4 9 7 3 66 88 92 94 94 100 103 106 103 96 89 91 89 88 85 83 84 81 78 76 76 75 74 74 72
218 212 216 196 193 193 196 196 198 197 188 182 190 180 179 183 187 187 181 181 185 178 176 187 178 179 193 199 186 182 191 181 148 145 105 123 130 125 133 112 138 160 246 75 6 43 59 30 29 22 24 28 23 20 15 11 9 9 9 2 12 60 89 96 100 102 111 115 108 101 91 90 91 86 84 84 86 80 76 74 74 74 75 73 70
201 214 200 189 197 203 194 200 196 185 179 184 182 183 178 187 187 188 193 194 175 186 191 185 189 196 170 173 190 187 183 170 150 140 143 133 141 142 139 74 84 121 359 13 320 36 9 28 17 19 24 30 27 29 23 16 12 14 15 14 7 16 52 98 98 97 101 109 103 97 92 88 85 87 87 83 82 78 76 73 74 74 73 73 69
206 209 173 189 196 191 198 193 189 183 177 179 182 180 185 187 194 198 193 183 185 181 188 178 185 184 185 185 171 166 165 173 157 163 160 160 150 152 140 129 97 82 104 338 360 290 195 30 23 21 26 29 29 34 28 23 23 22 27 17 9 7 29 62 68 82 84 96 103 99 97 94 94 89 89 85 82 78 75 74 74 73 71 70 70
205 173 191 182 191 195 194 197 186 185 187 185 182 185 186 188 196 195 199 187 180 187 188 183 187 177 171 143 147 177 172 174 173 167 173 163 154 159 156 150 144 172 188 205 214 250 178 127 24 42 20 42 37 37 53 45 30 28 27 24 16 350 40 63 68 75 77 84 96 100 98 98 97 94 88 87 85 80 79 77 76 73 71 68 66
194 187 185 190 192 194 195 194 192 192 192 194 189 189 186 192 197 199 210 177 177 185 155 176 166 160 158 176 179 170 181 177 174 173 168 164 170 172 172 165 163 140 167 194 214 178 212 191 161 43 48 38 63 44 58 48 50 44 28 33 20 356 56 71 83 83 81 97 98 106 109 107 111 108 103 93 88 87 87 89 85 78 76 74 72
190 190 185 191 198 196 198 199 197 193 198 191 190 173 166 191 192 211 197 158 166 133 164 159 165 164 165 171 170 177 182 179 184 179 176 173 175 184 188 183 159 157 160 176 200 182 161 184 167 156 165 126 105 77 61 59 62 48 40 30 21 19 24 93 97 93 89 98 114 123 119 118 114 116 109 101 98 94 93 94 90 89 88 84 76
189 186 193 195 196 202 199 202 188 193 181 183 172 176 178 188 185 195 170 171 174 176 179 168 174 168 172 181 188 188 180 187 181 184 184 176 182 180 187 167 187 153 156 146 139 224 159 176 163 140 144 154 131 111 88 68 62 57 42 32 26 34 29 57 100 100 97 93 97 110 118 112 115 112 106 98 95 93 93 92 88 81 79 75 68
196 195 192 194 194 196 197 191 187 185 186 185 177 182 182 195 185 187 189 179 188 187 182 182 171 179 175 182 188 183 178 174 179 182 184 187 172 178 178 175 168 160 152 150 148 168 172 155 136 139 142 138 136 115 101 69 77 72 33 45 36 42 39 16 103 103 110 109 102 99 100 106 107 103 90 88 91 90 89 86 84 81 76 71 64
189 191 195 197 195 197 191 194 190 189 186 185 183 182 189 196 192 190 179 190 194 194 179 185 188 181 184 181 183 184 169 176 180 173 177 177 170 177 171 168 168 168 157 136 124 117 40 93 138 148 151 141 121 134 115 105 91 89 81 48 44 59 36 39 66 115 113 116 117 117 113 108 107 106 102 98 94 92 90 89 87 85 81 75 68
183 197 197 196 196 192 192 196 193 191 191 191 185 184 193 196 196 187 186 190 196 192 186 192 189 190 181 180 183 179 186 180 172 184 176 173 178 171 188 180 177 179 178 110 121 139 146 147 138 137 157 182 102 151 142 135 126 118 95 67 54 49 41 29 39 99 121 119 124 126 123 118 116 114 109 104 102 98 97 96 95 90 82 74 66
193 195 195 195 192 190 195 197 193 196 197 196 189 190 197 195 195 194 191 190 194 191 194 198 189 180 182 188 185 176 176 177 187 185 175 182 179 184 185 184 180 181 180 137 133 126 145 156 159 156 168 170 133 154 144 123 124 120 112 99 62 68 50 29 35 20 119 114 116 120 123 121 118 120 118 112 105 106 103 94 92 89 78 68 60
194 199 195 193 188 191 198 199 199 202 199 198 194 198 200 197 197 197 192 196 199 200 199 194 186 186 188 182 188 178 176 181 183 180 186 177 184 185 180 189 180 179 173 157 149 126 154 137 182 169 157 145 128 136 136 125 125 127 121 107 83 73 56 42 35 13 105 104 97 97 103 106 105 110 114 108 97 90 84 81 76 68 61 57 53
200 194 201 190 194 194 201 204 204 206 205 198 201 206 209 206 205 202 200 201 204 205 204 198 191 190 189 194 179 176 177 182 183 188 182 185 179 175 181 174 176 165 156 157 134 136 149 154 130 153 130 113 118 145 151 145 139 123 127 127 130 122 104 79 39 68 72 70 69 64 68 76 74 81 87 88 74 72 70 70 68 63 60 57 56
204 201 196 192 197 203 208 211 208 210 203 200 205 207 206 204 206 207 205 207 209 209 206 202 197 196 196 194 182 181 182 186 189 183 180 184 173 177 172 171 166 154 155 143 140 146 150 156 146 141 173 160 153 172 169 160 150 147 139 136 121 136 137 132 124 109 120 115 96 60 48 41 48 57 69 74 63 60 61 63 61 57 53 52 52
203 197 197 196 203 204 211 207 207 205 201 201 205 207 205 203 204 204 206 207 209 210 210 205 199 201 202 198 188 188 193 195 185 185 179 179 181 183 177 169 164 162 160 159 153 149 151 137 89 106 136 157 154 159 169 156 157 153 152 146 150 150 159 153 146 141 127 99 96 96 90 80 78 69 70 77 68 59 57 56 51 47 44 42 41
202 197 195 198 203 201 208 206 207 200 199 203 207 206 205 202 201 208 206 206 208 210 210 204 202 204 205 203 198 198 201 199 190 183 177 180 175 178 178 164 166 162 163 156 154 153 149 130 148 155 162 147 156 107 122 147 158 185 191 169 162 165 170 151 163 149 150 128 129 118 96 74 72 74 65 63 68 58 54 43 31 33 31 29 30
201 202 198 194 199 207 207 205 202 197 201 206 204 202 201 202 202 206 205 206 205 207 205 204 204 205 206 206 204 202 203 200 192 182 189 180 171 176 180 171 170 168 160 162 163 154 161 149 123 112 142 161 172 157 168 185 194 178 164 156 149 138 137 131 145 137 155 140 152 129 135 113 106 127 119 105 88 61 29 41 10 15 10 15 17
204 201 197 199 204 207 203 205 203 200 208 208 207 198 196 199 199 201 199 203 201 201 201 201 205 205 206 203 202 196 195 191 187 186 187 189 194 191 174 176 174 172 171 170 172 176 167 159 171 160 167 184 177 183 174 172 138 117 141 160 151 143 134 140 134 155 170 160 158 147 152 129 119 161 139 135 132 79 29 350 300 4 354 2 8
208 202 195 206 212 208 209 206 207 211 212 212 204 203 204 200 193 198 199 202 200 201 202 200 205 202 203 199 197 194 190 189 188 187 188 189 190 190 187 191 187 175 171 178 188 177 173 174 153 162 179 155 174 164 167 153 155 158 159 163 153 151 165 161 169 151 173 178 181 146 182 153 143 173 162 162 162 147 174 240 319 342 346 353 3
207 187 205 213 211 210 212 214 215 216 219 208 205 208 206 203 195 199 202 203 200 204 203 204 206 199 196 191 193 192 193 192 185 185 188 189 188 187 185 191 197 203 207 186 173 177 184 172 172 189 174 186 164 167 168 156 162 154 166 161 168 165 170 180 165 163 166 144 187 155 177 153 140 184 164 184 158 185 210 263 294 317 334 345 350
184 201 215 210 216 212 211 216 221 218 224 203 209 209 207 206 202 195 209 206 204 207 204 204 203 197 190 190 192 194 193 186 182 181 177 181 185 183 183 188 194 197 199 210 220 209 177 175 173 178 189 159 159 179 167 154 151 141 153 155 173 169 175 152 149 126 149 149 154 183 168 182 133 204 161 200 155 204 220 246 277 314 326 340 346
201 212 214 215 215 214 214 216 222 221 223 209 209 208 207 205 204 199 213 208 211 210 206 203 203 199 194 193 191 192 187 184 183 176 172 173 168 169 172 175 178 190 192 187 163 155 183 177 158 175 160 148 161 150 147 154 157 164 162 166 161 154 161 151 125 131 137 154 164 163 159 179 145 173 184 180 152 204 221 253 293 316 329 333 339
204 212 211 214 219 216 216 215 222 225 224 208 207 207 207 206 207 201 213 213 215 216 212 209 207 202 198 198 198 182 181 184 184 176 173 171 158 156 142 145 144 154 129 136 135 139 117 138 103 91 112 124 126 133 143 152 153 151 147 147 143 138 123 111 106 150 158 184 168 213 177 142 173 162 225 158 203 222 245 265 295 319 326 329 330
215 215 224 217 221 215 215 215 219 230 225 202 206 206 208 208 205 208 213 214 217 216 215 212 208 205 202 198 182 169 164 162 176 174 166 137 142 147 144 144 144 128 106 114 114 106 104 93 102 112 111 124 132 137 144 138 130 121 115 111 119 135 139 154 158 170 153 154 136 156 163 202 196 118 241 78 288 284 284 279 313 330 333 333 339
214 217 221 219 214 213 216 214 220 230 228 204 202 204 205 206 204 211 212 215 218 217 216 211 208 201 197 190 176 174 169 160 176 177 173 157 142 150 148 145 135 122 130 124 130 129 126 124 126 131 136 143 147 149 150 148 144 144 134 128 155 152 145 154 174 165 198 151 223 141 178 302 276 107 281 291 24 308 305 317 341 344 344 350 353
218 223 218 223 218 215 216 219 217 226 227 208 204 203 205 205 203 209 212 214 220 215 217 204 202 198 189 175 162 152 152 165 179 179 176 160 145 146 145 145 146 150 147 141 130 138 138 138 139 142 146 148 150 153 155 159 157 155 154 162 165 142 161 165 163 154 166 124 201 142 110 238 94 22 55 304 16 277 335 328 344 349 350 349 345
227 211 208 219 226 219 219 223 217 220 228 213 203 206 204 205 205 212 210 215 214 212 197 196 174 148 157 179 170 167 159 171 181 183 180 168 153 160 160 150 159 159 165 149 150 148 148 143 148 143 148 150 149 149 158 159 160 159 156 144 155 150 160 155 140 120 65 268 177 151 109 266 93 293 100 10 342 294 68 348 342 324 329 333 343